Location: Festilli
(46.4000°N, 11.6667°E)
Time: 16:10:43
(UTC+00:00)

Cosmos 2278 Rocket - Pass Details

Date: 03 March 2021
Orbit: 841 x 845 km, 71.0° (Epoch: 18 April)

Event Time Altitude Azimuth Distance (km) Brightness Sun altitude
Rises 18:40:11 0° 339° (NNW) 3,415 5.8 -17.6°
Reaches altitude 10° 18:43:03 10° 352° (N) 2,476 4.8 -18.1°
Maximum altitude 18:47:48 27° 48° (NE) 1,591 3.3 -18.9°
Enters shadow 18:48:34 26° 62° (ENE) 1,620 3.2 -19.0°
